FFL876 KSAN-KDWH

Flight info

Callsign FFL876
Flight time N/A
Altitude 35000
Route KSAN/27 N0476F450 BRDR7 IPL DCT ARGUS DCT HEEDS DCT FLIER DCT SSO DCT EWM DCT CAVRN DCT OHARA DCT SJT DCT GRK DCT CLL RIICE1 KDWH/17R
Aircraft C700/L-S/L

Departure

Time 2026-04-26 02:14
Airport San Diego International Airport (KSAN)

Arrival

Time N/A
Airport David Wayne Hooks Memorial Airport (KDWH)
Time Latitude Longitude Altitude Speed Heading
2026-04-26 01:44 32.73457 -117.17949 38 ft 0 kts 325°
2026-04-26 02:07 32.73446 -117.17939 20 ft 2 kts 324°
2026-04-26 02:07 32.73433 -117.17928 27 ft 2 kts 322°
2026-04-26 02:07 32.73420 -117.17916 25 ft 2 kts 317°
2026-04-26 02:07 32.73412 -117.17900 25 ft 2 kts 233°
2026-04-26 02:08 32.73414 -117.17896 26 ft 0 kts 210°
2026-04-26 02:09 32.73410 -117.17899 23 ft 4 kts 210°
2026-04-26 02:10 32.73383 -117.17928 25 ft 7 kts 225°
2026-04-26 02:10 32.73327 -117.17960 23 ft 12 kts 197°
2026-04-26 02:10 32.73234 -117.17959 19 ft 17 kts 132°
2026-04-26 02:10 32.73195 -117.17827 20 ft 10 kts 107°
2026-04-26 02:11 32.73171 -117.17730 21 ft 14 kts 105°
2026-04-26 02:11 32.73148 -117.17634 20 ft 0 kts 106°
2026-04-26 02:11 32.73127 -117.17581 19 ft 4 kts 135°
2026-04-26 02:11 32.73118 -117.17571 19 ft 8 kts 140°
2026-04-26 02:12 32.73066 -117.17531 20 ft 9 kts 162°
2026-04-26 02:12 32.73019 -117.17574 21 ft 0 kts 279°
2026-04-26 02:14 32.73087 -117.17854 19 ft 83 kts 286°
2026-04-26 02:14 32.73324 -117.18804 244 ft 148 kts 284°
2026-04-26 02:14 32.73630 -117.20142 1125 ft 184 kts 282°
2026-04-26 02:14 32.73798 -117.21775 1923 ft 221 kts 259°
2026-04-26 02:15 32.73015 -117.23441 2692 ft 240 kts 227°
2026-04-26 02:15 32.71677 -117.24728 3468 ft 256 kts 211°
2026-04-26 02:15 32.69974 -117.25190 4211 ft 260 kts 180°
2026-04-26 02:15 32.68190 -117.24454 4987 ft 294 kts 149°
2026-04-26 02:16 32.66684 -117.22625 5779 ft 325 kts 131°
2026-04-26 02:16 32.64924 -117.20925 6522 ft 329 kts 152°
2026-04-26 02:16 32.62826 -117.19759 7260 ft 335 kts 160°
2026-04-26 02:16 32.60662 -117.18707 8034 ft 335 kts 161°
2026-04-26 02:17 32.58700 -117.17223 8761 ft 347 kts 139°
2026-04-26 02:17 32.57395 -117.14809 9539 ft 355 kts 115°
2026-04-26 02:17 32.56999 -117.11857 10279 ft 371 kts 92°
2026-04-26 02:17 32.57257 -117.08809 11006 ft 378 kts 84°
2026-04-26 02:18 32.57740 -117.05692 11750 ft 389 kts 81°
2026-04-26 02:18 32.58654 -117.02614 12481 ft 399 kts 67°
2026-04-26 02:18 32.59952 -116.99634 13262 ft 425 kts 62°
2026-04-26 02:18 32.61403 -116.96488 14032 ft 437 kts 65°
2026-04-26 02:19 32.62375 -116.93033 14721 ft 444 kts 82°
2026-04-26 02:19 32.62647 -116.89405 15442 ft 445 kts 93°
2026-04-26 02:19 32.62612 -116.85695 16186 ft 452 kts 96°
2026-04-26 02:19 32.62572 -116.81935 16946 ft 465 kts 93°
2026-04-26 02:20 32.62821 -116.78057 17733 ft 475 kts 86°
2026-04-26 02:20 32.63280 -116.74162 18498 ft 486 kts 84°
2026-04-26 02:20 32.63814 -116.70179 19189 ft 490 kts 85°
2026-04-26 02:20 32.64204 -116.66148 19909 ft 492 kts 89°
2026-04-26 02:21 32.64450 -116.62077 20628 ft 501 kts 91°
2026-04-26 02:21 32.64708 -116.57916 21389 ft 506 kts 89°
2026-04-26 02:21 32.65111 -116.53777 22068 ft 512 kts 86°
2026-04-26 02:21 32.65601 -116.49557 22834 ft 517 kts 87°